980  
ASUS44 KLCH 270410  
RWRLCH  
REGIONAL WEATHER ROUNDUP  
NATIONAL WEATHER SERVICE LAKE CHARLES LA  
1100 PM CDT WED JUL 26 2017  
 
NOTE: "FAIR" INDICATES FEW OR NO CLOUDS BELOW 12,000 FEET WITH NO  
SIGNIFICANT WEATHER AND/OR S TO VISIBILITY
.  
 
ACROSS SOUTHEAST TEXAS  
 
CITY SKY/WX TMP DP RH WIND PRES REMARKS
 
BEAUMONT CLEAR 76 74 93 S6 30.05F  
BEAUMONT CITY FAIR 80 75 85 MISG 30.06F  
ORANGE CLEAR 82 76 83 S5 30.07F  
JASPER N/A 81 76 86 CALM 30.09R  

 
 
ACROSS CENTRAL LOUISIANA  
 
CITY SKY/WX TMP DP RH WIND PRES REMARKS
 
LEESVILLE CLEAR 80 75 84 S3 30.07R  
FULLERTON FAIR 77 76 96 CALM 30.06R FOG  
ALEXANDRIA INT CLEAR 80 75 84 S5 30.05R  
ESLER FIELD CLEAR 77 76 96 CALM 30.07R  
DERIDDER FAIR 80 78 95 CALM 30.09S  
OAKDALE CLEAR 76 74 95 CALM 30.08S  
OPELOUSAS FAIR 79 76 92 CALM 30.08S  

 
 
ACROSS SOUTHWEST AND SOUTH CENTRAL LOUISIANA  
 
CITY SKY/WX TMP DP RH WIND PRES REMARKS
 
SULPHUR CLEAR 80 76 89 S5 30.07S  
LAKE CHARLES CLEAR 80 76 87 S3 30.07R  
CHENNAULT INT CLEAR 81 76 85 S5 30.07S  
CAMERON PHI CLEAR 84 75 74 S8 30.06S  
DEQUINCY FAIR 77 75 92 CALM 30.07S  
JENNINGS FAIR 79 76 89 CALM 30.08R  
LAFAYETTE CLEAR 82 77 84 W5 30.08R  
NEW IBERIA CLEAR 80 75 84 CALM 30.08R  
ABBEVILLE FAIR 79 79 100 CALM 30.08R  
PATTERSON CLEAR 81 77 88 W3 30.08S  
SALT POINT N/A 85 76 74 CALM 30.06R  

 
 
SELECTED SITES ACROSS THE REGION  
 
CITY SKY/WX TMP DP RH WIND PRES REMARKS
 
HOUSTON BUSH PTCLDY 84 73 69 S6 30.05R  
HOUSTON HOBBY PTCLDY 83 74 74 S6 30.05R  
GALVESTON CLEAR 84 77 79 S10 30.06S  
COLLEGE STAT CLEAR 84 73 69 S10 30.03R  
CONROE PTCLDY 81 73 76 SE5 30.06R  
HUNTSVILLE CLEAR 84 73 69 S3 30.05R  
LUFKIN CLEAR 79 73 82 SE6 30.05S  
SHREVEPORT PTCLDY 83 75 77 S7 30.03S  
MONROE PTCLDY 81 73 76 S5 30.06R  
NATCHEZ MS CLEAR 78 75 90 CALM 30.09R  
BATON ROUGE CLEAR 80 72 76 W6 30.07S  
N.O. INTL ARPT PTCLDY 82 74 76 S5 30.07R  
SLIDELL PTCLDY 77 75 93 CALM 30.07R  

 
 
MARINE REPORTS  
 
STATION/POSITION TIME SKY/WX TEMP WIND PRES VSBY
 
AIR SEA DIR/SP/G  
(UTC) (F) (DEG/KT/KT) (MB) (MI)  
BUOY 30 S HIGH I 0250 86 87 180/ 10/ 12 1017.8  
WVE H/P(F/S)= 2/ 6  
 
SEA RIM ST PARK 0300 85 180/ 8/ 11 1018.5R  
PORT ARTHUR 0348 82 87 200/ 2/ 4 1018.4S  
SABINE PASS N 0348 84 89 190/ 7/ 10 1019.3F  
TEXAS POINT NOT AVBL  
CALCASIEU PASS 0348 87 220/ 12/ 14 1017.4S  
LK CHARLES BEACH 0348 83 85 1018.7R  
MARSH ISLAND NOT AVBL  
FRESH WATER LOCK 0348 83 88 210/ 4/ 6 1018.4F  
AMERADA PASS 0348 85 90 260/ 3/ 5 1018.3R  

 
 
 
CLICK HERE TO GO TO PREVIOUS BULLETINS.

The Nexlab LA Page
The Nexlab TX Page Main Text Page